STARLINK-2033, 47650

Orbit data source: Space-Track

STARLINK-2033, 47650 is a payload satellite owned by SpaceX/Seattle (US) in LEO that was launched on Tue, 16 Feb 2021 UTC via an FALCON 9 launch vehicle from the Air Force Eastern Test Range (AFETR). Payload-class satellites include a variety of spacecraft equipped with specific instruments for various scientific and technological missions. These include communications satellites like Starlink; space stations such as the ISS; scientific satellites like the Hubble; Earth observation satellites from companies like Planet Labs, Umbra, and HawkEye 360; GPS; miniature CubeSats for education and research; and military/defense satellites.

Loading next visibility...
Identifier
47650, 2021-012AG
Orbit
LEO
Country
Flag of USUS
Related business
Manufacturer
SpaceX/Seattle
Mission
Partially operational Commercial Communications
Bus & Motor
STARLINK, Unknown motor
Mass
260 kg wet, ~248 kg dry
Launch date (UTC)
2021-02-16 (5 years ago)
Launch vehicle
FALCON 9
Launch site
Air Force Eastern Test Range (AFETR)
Object type
Payload
Rocket body
Debris
Shape & HBR
Box + 1 Pan, 10.1 m
Radar Cross Section
13.562 m², Large (>1 m²)

Expand to show TLE details & history
Last TLE update: 3 days ago

TLE from 3 days ago
0 STARLINK-2033
1 47650U 21012AG  26170.60422898  .00052742  00000-0  12215-2 0  9996
2 47650  53.1511 291.5027 0001309 242.9520 117.1353 15.41954221295958
Epoch: 2026-06-19T14:30Z
TLE epoch observation values (Epoch: 2026-06-19T14:30:05.383Z)
Latitude
0.00002°
Longitude
166.14946°
Altitude
441.653 km
Speed
7.648 km/s
True Right ascension
19h 26m 00s
True Declination
0° 00' 00"
Sunlit
Object was in full shadow at epoch
Visualization orbit readout
Latitude
Unknown
Longitude
Unknown
Altitude
Unknown
Speed
Unknown
Apparent Right ascension
Unknown
Apparent Declination
Unknown
Sunlit
N/A
Visualization observer readout
Local Sidereal Time
21:37:42
Azimuth
Unknown
Elevation
Unknown
Doppler factor
Unknown
Orbital elements
Apogee altitude
441.494 km
Perigee altitude
439.709 km
Semi-major axis
6,818.738 km
Eccentricity
0.00013
Inclination
53.1511°
RAAN
291.5027°
Arg. of periapsis
242.952°
True anomaly
117.14865°
Mean anomaly
117.1353°
Eccentric anomaly
117.14197°
Mean motion
3.85467 °/min
Orbital period
93.39 mins
BSTAR
0.0012215
Loading maneuver chart data...
Computing Atmospheric mass density...

Documentation

Showing up to 5 results
|